KF4PPJ Weather Reports


time (UTC)temp
F
wind
direction
speed
knots
gust
knots
rain 1hr
in
rain 24hr
in
rain mn
in
humidity
%
barometer
mb
20260508010815 65 206 2.6 2.6 0.00 0.00 0.00 53 1020.0
20260508010313 65 171 1.7 2.6 0.00 0.00 0.00 53 1020.1
20260508005809 65 209 2.6 4.3 0.00 0.00 0.00 53 1020.2
20260508005306 65 194 0.9 4.3 0.00 0.00 0.00 53 1020.3
20260508004802 65 216 3.5 4.3 0.00 0.00 0.00 52 1020.4
20260508004258 66 199 0.9 2.6 0.00 0.00 0.00 52 1020.5
20260508003755 65 219 1.7 2.6 0.00 0.00 0.00 52 1020.2
20260508003253 66 208 2.6 4.3 0.00 0.00 0.00 52 1020.3
20260508002748 65 198 1.7 2.6 0.00 0.00 0.00 52 1020.3
20260508002246 66 212 2.6 4.3 0.00 0.00 0.00 51 1020.6
20260508001742 66 153 4.3 5.2 0.00 0.00 0.00 52 1020.5
20260508001237 65 163 0.0 1.7 0.00 0.00 0.00 53 1020.5
20260508000734 65 193 0.0 1.7 0.00 0.00 0.00 53 1020.5
20260508000234 66 154 4.3 6.1 0.00 0.00 0.00 51 1020.7
20260507235727 66 160 2.6 4.3 0.00 0.00 0.00 52 1020.6
20260507235225 66 103 2.6 4.3 0.00 0.00 0.00 51 1020.7
20260507234722 66 249 2.6 4.3 0.00 0.00 0.00 51 1020.6
20260507234219 66 195 2.6 2.6 0.00 0.00 0.00 51 1020.7
20260507233715 66 223 2.6 8.7 0.00 0.00 0.00 53 1020.7
20260507233213 66 212 0.9 2.6 0.00 0.00 0.00 52 1020.9
20260507232710 67 263 2.6 6.1 0.00 0.00 0.00 53 1021.0
20260507232207 65 205 2.6 8.7 0.00 0.00 0.00 53 1020.5
20260507231704 64 222 5.2 7.0 0.00 0.00 0.00 53 1020.9
20260507231201 64 197 3.5 6.1 0.00 0.00 0.00 53 1020.9
20260507230657 65 225 6.1 7.8 0.00 0.00 0.00 53 1021.2
20260507230155 64 215 2.6 5.2 0.00 0.00 0.00 53 1020.9
20260507225654 64 199 3.5 6.1 0.00 0.00 0.00 55 1021.1
20260507225151 63 243 2.6 6.1 0.00 0.00 0.00 55 1021.2
20260507224646 63 210 3.5 5.2 0.00 0.00 0.00 54 1021.2
20260507224143 65 139 3.5 6.1 0.00 0.00 0.00 52 1021.1
20260507223639 65 259 2.6 2.6 0.00 0.00 0.00 52 1021.4
20260507223137 64 190 1.7 4.3 0.00 0.00 0.00 53 1021.4
20260507222634 63 204 5.2 7.8 0.00 0.00 0.00 55 1021.4
20260507222130 64 221 2.6 6.1 0.00 0.00 0.00 55 1021.6
20260507221626 64 195 3.5 8.7 0.00 0.00 0.00 54 1021.5
20260507221123 63 233 3.5 4.3 0.00 0.00 0.00 56 1021.5
20260507220620 63 229 6.1 7.8 0.00 0.00 0.00 55 1021.6
20260507220118 62 184 4.3 6.1 0.00 0.00 0.00 55 1021.8
20260507215613 63 247 5.2 8.7 0.00 0.00 0.00 54 1021.5
20260507215112 62 249 5.2 7.8 0.00 0.00 0.00 55 1021.6
20260507214608 64 231 4.3 6.1 0.00 0.00 0.00 53 1021.6
20260507214104 63 186 4.3 5.2 0.00 0.00 0.00 55 1021.9
20260507213601 63 216 2.6 7.0 0.00 0.00 0.00 56 1021.8
20260507213058 63 219 2.6 7.0 0.00 0.00 0.00 56 1021.6
20260507212554 63 185 4.3 7.0 0.00 0.00 0.00 55 1021.7
20260507212051 63 205 2.6 6.1 0.00 0.00 0.00 56 1021.8
20260507211547 63 194 6.1 7.0 0.00 0.00 0.00 56 1022.0
20260507211043 63 196 7.0 7.8 0.00 0.00 0.00 56 1022.0
20260507210541 62 147 2.6 7.8 0.00 0.00 0.00 56 1022.0
20260507210038 62 218 4.3 6.1 0.00 0.00 0.00 56 1022.0
20260507205534 62 164 6.1 7.0 0.00 0.00 0.00 56 1022.3
20260507205031 62 223 2.6 4.3 0.00 0.00 0.00 57 1022.4
20260507204527 62 175 4.3 6.1 0.00 0.00 0.00 56 1022.4
20260507204025 62 181 3.5 5.2 0.00 0.00 0.00 57 1022.4
20260507203523 62 214 3.5 5.2 0.00 0.00 0.00 57 1022.5
20260507203020 62 213 2.6 6.1 0.00 0.00 0.00 56 1022.5
20260507202515 62 220 2.6 4.3 0.00 0.00 0.00 57 1022.6
20260507202012 61 248 4.3 5.2 0.00 0.00 0.00 59 1022.5
20260507201508 61 214 3.5 8.7 0.00 0.00 0.00 58 1022.8
20260507201004 61 225 2.6 7.0 0.00 0.00 0.00 59 1022.7
20260507200459 60 209 2.6 4.3 0.00 0.00 0.00 59 1022.7
20260507195955 60 162 2.6 5.2 0.00 0.00 0.00 59 1022.8
20260507195453 60 210 2.6 4.3 0.00 0.00 0.00 59 1022.7
20260507194950 60 239 2.6 5.2 0.00 0.00 0.00 59 1022.8
20260507194447 60 191 5.2 7.0 0.00 0.00 0.00 57 1022.8
20260507193942 60 222 2.6 5.2 0.00 0.00 0.00 58 1022.8
20260507193440 59 192 2.6 4.3 0.00 0.00 0.00 63 1022.8
20260507192937 58 178 3.5 4.3 0.00 0.00 0.00 63 1023.0
20260507192432 58 192 1.7 4.3 0.00 0.00 0.00 64 1022.8
20260507191930 58 202 2.6 4.3 0.00 0.00 0.00 65 1023.1
20260507191426 59 202 2.6 2.6 0.00 0.00 0.00 64 1023.0
20260507190922 58 206 2.6 4.3 0.00 0.00 0.00 66 1022.9
20260507190420 58 150 4.3 6.1 0.00 0.00 0.00 66 1023.1
20260507185919 58 283 5.2 6.1 0.00 0.00 0.00 64 1023.2
20260507185416 58 195 2.6 4.3 0.00 0.00 0.00 65 1023.0
20260507184913 58 172 2.6 5.2 0.00 0.00 0.00 65 1023.3
20260507184410 59 174 4.3 5.2 0.00 0.00 0.00 65 1023.2
20260507183908 60 192 3.5 5.2 0.00 0.00 0.00 61 1023.2
20260507183404 60 195 2.6 7.0 0.00 0.00 0.00 62 1023.3
20260507182902 59 152 0.9 5.2 0.00 0.00 0.00 63 1023.3
20260507182357 58 171 1.7 4.3 0.00 0.00 0.00 68 1023.2
20260507181854 59 237 2.6 5.2 0.00 0.00 0.00 65 1023.4
20260507181350 58 159 1.7 7.0 0.00 0.00 0.00 66 1023.3
20260507180847 57 127 2.6 4.3 0.00 0.00 0.00 68 1023.4
20260507180344 57 148 6.1 8.7 0.00 0.00 0.00 68 1023.4
20260507175839 56 189 3.5 5.2 0.00 0.00 0.00 70 1023.6
20260507175337 56 246 4.3 6.1 0.00 0.00 0.00 70 1023.6
20260507174834 56 209 2.6 2.6 0.00 0.00 0.00 71 1023.7
20260507174331 55 199 1.7 2.6 0.00 0.00 0.00 72 1023.5
20260507173829 55 249 3.5 5.2 0.00 0.00 0.00 71 1023.6
20260507173326 55 207 2.6 5.2 0.00 0.00 0.00 72 1023.4
20260507172822 56 190 1.7 5.2 0.00 0.00 0.00 71 1023.5
20260507172319 56 190 3.5 6.1 0.00 0.00 0.00 70 1023.3
20260507171814 57 171 4.3 9.6 0.00 0.00 0.00 69 1023.4
20260507171312 56 187 2.6 4.3 0.00 0.00 0.00 70 1023.5
20260507170809 56 206 2.6 4.3 0.00 0.00 0.00 72 1023.4
20260507170305 56 169 0.9 6.1 0.00 0.00 0.00 71 1023.5
20260507165801 56 256 2.6 5.2 0.00 0.00 0.00 72 1023.3
20260507165257 55 156 0.9 7.8 0.00 0.00 0.00 71 1023.4
20260507164753 55 222 2.6 2.6 0.00 0.00 0.00 72 1023.5
20260507164251 55 178 2.6 5.2 0.00 0.00 0.00 73 1023.6
20260507163748 55 189 2.6 5.2 0.00 0.00 0.00 73 1023.6
20260507163246 55 220 4.3 8.7 0.00 0.00 0.00 72 1023.6
20260507162741 54 172 4.3 6.1 0.00 0.00 0.00 74 1023.5
20260507162237 54 246 6.1 9.6 0.00 0.00 0.00 74 1023.4
20260507161734 54 241 2.6 4.3 0.00 0.00 0.00 74 1023.6
20260507161231 55 223 2.6 5.2 0.00 0.00 0.00 73 1023.7
20260507160726 54 210 3.5 5.2 0.00 0.00 0.00 75 1023.8
20260507160223 54 139 5.2 6.1 0.00 0.00 0.00 74 1023.6
20260507155719 54 232 2.6 7.8 0.00 0.00 0.00 75 1023.8
20260507155215 53 205 5.2 7.8 0.00 0.00 0.00 75 1023.7
20260507154712 53 214 3.5 5.2 0.00 0.00 0.00 77 1023.8
20260507154210 53 131 4.3 6.1 0.00 0.00 0.00 77 1023.6
20260507153707 52 174 3.5 5.2 0.00 0.00 0.00 79 1023.7
20260507153203 52 201 2.6 6.1 0.00 0.00 0.00 78 1024.0
20260507152659 52 212 3.5 5.2 0.00 0.00 0.00 78 1023.8
20260507152155 52 133 1.7 5.2 0.00 0.00 0.00 78 1023.7
20260507151651 52 134 4.3 5.2 0.00 0.00 0.00 78 1023.8
20260507151148 52 220 4.3 7.0 0.00 0.00 0.00 78 1023.8
20260507150645 53 212 3.5 5.2 0.00 0.00 0.00 77 1023.7
20260507150142 53 184 1.7 5.2 0.00 0.00 0.00 77 1023.6
20260507145637 53 229 2.6 4.3 0.00 0.00 0.00 78 1023.7
20260507145135 53 192 2.6 6.1 0.00 0.00 0.00 78 1023.9
20260507144631 52 195 2.6 6.1 0.00 0.00 0.00 78 1023.8
20260507144130 52 184 2.6 5.2 0.00 0.00 0.00 79 1023.7
20260507143626 52 206 2.6 5.2 0.00 0.00 0.00 79 1023.7
20260507143123 52 228 4.3 5.2 0.00 0.00 0.00 79 1023.6
20260507142618 52 217 3.5 5.2 0.00 0.00 0.00 80 1023.9
20260507142116 52 160 2.6 2.6 0.00 0.00 0.00 80 1023.7
20260507141612 52 230 1.7 2.6 0.00 0.00 0.00 79 1023.8
20260507141109 52 156 0.9 0.9 0.00 0.00 0.00 80 1023.7
20260507140605 52 175 0.9 1.7 0.00 0.00 0.00 80 1023.7
20260507135600 52 232 2.6 2.6 0.00 0.00 0.00 80 1023.6
20260507135057 52 162 1.7 4.3 0.00 0.00 0.00 80 1023.6
20260507134553 52 164 0.0 0.9 0.00 0.00 0.00 81 1023.6
20260507134050 52 178 3.5 4.3 0.00 0.00 0.00 81 1023.7
20260507133545 52 175 0.9 2.6 0.00 0.00 0.00 82 1023.3
20260507133044 52 179 0.9 1.7 0.00 0.00 0.00 82 1023.4
20260507132540 52 184 0.9 1.7 0.00 0.00 0.00 83 1023.4
20260507132036 51 171 0.9 1.7 0.00 0.00 0.00 82 1023.3
20260507131533 51 162 1.7 1.7 0.00 0.00 0.00 82 1023.4
20260507131031 51 188 1.7 4.3 0.00 0.00 0.00 82 1023.5
20260507130527 51 160 0.0 0.0 0.00 0.00 0.00 82 1023.4
20260507130026 51 167 0.9 1.7 0.00 0.00 0.00 82 1023.5
20260507125524 51 160 0.0 0.9 0.00 0.00 0.00 83 1023.4
20260507125021 51 161 0.0 1.7 0.00 0.00 0.00 83 1023.3
20260507124517 51 162 0.0 0.0 0.00 0.00 0.00 83 1023.6
20260507124015 51 146 0.0 0.9 0.00 0.00 0.00 84 1023.5
20260507123513 51 146 0.0 0.0 0.00 0.00 0.00 83 1023.5
20260507123010 51 167 0.0 0.9 0.00 0.00 0.00 82 1023.6
20260507122504 51 191 0.9 1.7 0.00 0.00 0.00 83 1023.8
20260507122001 51 163 0.0 0.9 0.00 0.00 0.00 83 1023.4
20260507121456 51 155 0.0 0.9 0.00 0.00 0.00 83 1023.5
20260507120953 51 97 0.9 0.9 0.00 0.00 0.00 83 1023.6
20260507120449 51 151 0.0 0.0 0.00 0.00 0.00 84 1023.5
20260507115946 51 151 0.0 0.9 0.00 0.00 0.00 84 1023.8
20260507115442 51 163 0.0 0.9 0.00 0.00 0.00 84 1023.6
20260507114938 51 193 0.9 2.6 0.00 0.00 0.00 86 1023.7
20260507114434 51 175 0.0 0.0 0.00 0.00 0.00 87 1023.9
20260507113932 51 152 0.0 0.0 0.00 0.00 0.00 88 1023.8
20260507113429 51 151 0.0 0.0 0.00 0.00 0.00 88 1023.8
20260507112926 51 151 0.0 0.0 0.00 0.00 0.00 88 1023.9
20260507112424 51 155 0.0 0.0 0.00 0.00 0.00 88 1024.0
20260507111921 51 156 0.0 0.0 0.00 0.00 0.00 89 1024.1
20260507111418 51 155 0.0 0.0 0.00 0.00 0.00 89 1024.0
20260507110914 51 155 0.0 0.0 0.00 0.00 0.00 89 1023.9
20260507110410 51 155 0.0 0.0 0.00 0.00 0.00 89 1024.0
20260507105907 51 155 0.0 0.0 0.00 0.00 0.00 89 1024.0
20260507105404 51 155 0.0 0.0 0.00 0.00 0.00 89 1024.1
20260507104901 51 155 0.0 0.0 0.00 0.00 0.00 89 1023.9
20260507104357 51 155 0.0 0.0 0.00 0.00 0.00 89 1023.9
20260507103853 51 155 0.0 0.0 0.00 0.00 0.00 90 1024.1
20260507103350 51 152 0.0 0.0 0.00 0.00 0.00 90 1024.1
20260507102846 51 153 0.0 0.0 0.00 0.00 0.00 90 1024.2
20260507102343 51 155 0.0 0.0 0.00 0.00 0.00 90 1024.0
20260507101839 51 155 0.0 0.0 0.00 0.00 0.00 90 1024.0
20260507101339 51 155 0.0 0.0 0.00 0.00 0.00 90 1024.3
20260507100837 51 155 0.0 0.9 0.00 0.00 0.00 90 1024.2
20260507100334 51 155 0.0 0.0 0.00 0.00 0.00 90 1024.2
20260507095832 51 156 0.0 0.0 0.00 0.00 0.00 90 1024.0
20260507095328 51 155 0.0 0.9 0.00 0.00 0.00 90 1024.1
20260507094826 51 155 0.9 0.9 0.00 0.00 0.00 90 1023.9
20260507094322 51 144 0.0 0.9 0.00 0.00 0.00 90 1024.0
20260507093819 51 155 0.0 0.0 0.00 0.00 0.00 90 1024.0
20260507093318 51 155 0.0 0.9 0.00 0.00 0.00 90 1024.0
20260507092815 51 156 0.0 0.9 0.00 0.00 0.00 90 1024.0
20260507092312 51 148 0.9 0.9 0.00 0.00 0.00 90 1024.0
20260507091808 51 150 0.0 0.9 0.00 0.00 0.00 89 1023.9
20260507091305 51 145 0.0 0.0 0.00 0.00 0.00 89 1024.1
20260507090805 51 146 0.0 0.9 0.00 0.00 0.00 89 1023.9
20260507090302 51 155 0.0 0.0 0.00 0.00 0.00 88 1024.0
20260507085759 51 150 0.0 0.0 0.00 0.00 0.00 87 1023.9
20260507085255 52 157 0.0 0.0 0.00 0.00 0.00 86 1023.9
20260507084753 52 240 1.7 1.7 0.00 0.00 0.00 86 1023.9
20260507084249 52 163 0.0 0.9 0.00 0.00 0.00 86 1023.9
20260507083747 52 156 0.9 2.6 0.00 0.00 0.00 85 1023.6
20260507083243 52 167 0.0 0.9 0.00 0.00 0.00 85 1023.9
20260507082739 52 204 1.7 1.7 0.00 0.00 0.00 85 1024.0
20260507082235 52 165 0.0 0.9 0.00 0.00 0.00 85 1024.1
20260507081732 52 152 0.9 0.9 0.00 0.00 0.00 85 1024.0
20260507081228 52 156 0.0 1.7 0.00 0.00 0.00 85 1023.9
20260507080725 52 189 0.9 1.7 0.00 0.00 0.00 85 1024.0
20260507080222 52 208 2.6 4.3 0.00 0.00 0.00 85 1023.9
20260507075717 52 159 0.0 1.7 0.00 0.00 0.00 85 1023.9
20260507075213 52 205 0.9 2.6 0.00 0.00 0.00 85 1024.0
20260507074709 52 176 0.9 0.9 0.00 0.00 0.00 86 1024.1
20260507074208 52 173 0.9 1.7 0.00 0.00 0.00 86 1023.8
20260507073704 52 179 0.9 1.7 0.00 0.00 0.00 86 1023.9
20260507073200 53 202 3.5 7.0 0.00 0.00 0.00 86 1023.9
20260507072658 53 164 2.6 4.3 0.00 0.00 0.00 86 1023.9
20260507072155 53 210 2.6 4.3 0.00 0.00 0.00 86 1024.0
20260507071653 53 181 0.9 2.6 0.00 0.00 0.00 87 1024.0
20260507071149 53 166 1.7 1.7 0.00 0.00 0.00 87 1023.9
20260507070646 52 151 1.7 2.6 0.00 0.00 0.00 87 1024.0
20260507070143 52 214 1.7 4.3 0.00 0.00 0.00 87 1023.8
20260507065639 52 199 2.6 5.2 0.00 0.00 0.00 87 1023.9
20260507065136 52 175 2.6 6.1 0.00 0.00 0.00 88 1024.2
20260507064634 52 226 5.2 7.0 0.00 0.00 0.00 89 1024.1
20260507064133 52 163 0.9 1.7 0.00 0.00 0.00 89 1023.9
20260507063630 52 180 0.9 1.7 0.00 0.00 0.00 90 1023.9
20260507063127 52 177 0.0 0.9 0.00 0.00 0.00 90 1024.0
20260507062623 52 180 0.9 1.7 0.00 0.00 0.00 90 1023.9
20260507062121 52 184 0.9 1.7 0.00 0.00 0.00 90 1024.1
20260507061619 52 197 0.9 2.6 0.00 0.00 0.00 90 1024.0
20260507061117 52 151 1.7 2.6 0.00 0.00 0.00 89 1024.1
20260507060614 53 191 0.9 4.3 0.00 0.00 0.00 89 1024.4
20260507060111 53 216 2.6 5.2 0.00 0.00 0.00 89 1024.1
20260507055606 53 202 2.6 5.2 0.00 0.00 0.00 89 1024.0
20260507055102 53 185 0.9 6.1 0.00 0.00 0.00 90 1024.1
20260507054558 53 159 0.9 1.7 0.00 0.00 0.00 89 1024.1
20260507054055 53 186 0.9 2.6 0.00 0.00 0.00 89 1024.0
20260507053553 53 160 0.0 4.3 0.00 0.00 0.00 89 1024.1
20260507053052 53 164 4.3 5.2 0.00 0.00 0.00 89 1024.1
20260507052549 53 228 2.6 4.3 0.00 0.00 0.00 89 1024.2
20260507052046 53 207 0.9 2.6 0.00 0.00 0.00 88 1024.1
20260507051543 53 177 7.8 8.7 0.00 0.00 0.00 88 1024.0
20260507051040 53 224 3.5 5.2 0.00 0.00 0.00 88 1023.9
20260507050536 53 166 1.7 6.1 0.00 0.00 0.00 87 1024.1
20260507050033 53 179 1.7 1.7 0.00 0.00 0.00 87 1024.2
20260507045530 53 163 1.7 5.2 0.00 0.00 0.00 86 1024.3
20260507045027 54 235 3.5 5.2 0.00 0.00 0.00 85 1024.2
20260507044524 54 166 0.0 1.7 0.00 0.00 0.00 85 1024.0
20260507044020 54 218 3.5 4.3 0.00 0.00 0.00 84 1024.0
20260507043516 54 184 3.5 6.1 0.00 0.00 0.00 84 1024.1
20260507043014 54 196 1.7 1.7 0.00 0.00 0.00 83 1024.1
20260507042509 55 215 2.6 2.6 0.00 0.00 0.00 82 1023.8
20260507042005 55 187 0.9 6.1 0.00 0.00 0.00 82 1023.8
20260507041502 55 190 1.7 7.0 0.00 0.00 0.00 82 1023.8
20260507040959 55 172 1.7 2.6 0.00 0.00 0.00 81 1023.8
20260507040455 55 167 0.0 0.9 0.00 0.00 0.00 82 1023.9
20260507035951 55 161 0.0 1.7 0.00 0.00 0.00 82 1023.7
20260507035448 55 193 1.7 2.6 0.00 0.00 0.00 82 1023.7
20260507034945 55 190 2.6 2.6 0.00 0.00 0.00 82 1023.4
20260507034441 55 171 2.6 2.6 0.00 0.00 0.00 82 1023.6
20260507033940 55 183 1.7 1.7 0.00 0.00 0.00 82 1023.6
20260507033437 55 228 1.7 2.6 0.00 0.00 0.00 82 1023.6
20260507032934 55 201 2.6 2.6 0.00 0.00 0.00 81 1023.6
20260507032431 55 168 1.7 1.7 0.00 0.00 0.00 82 1023.4
20260507031927 55 159 1.7 5.2 0.00 0.00 0.00 81 1023.7
20260507031426 55 148 2.6 2.6 0.00 0.00 0.00 81 1023.4
20260507030920 55 182 1.7 4.3 0.00 0.00 0.00 81 1023.5
20260507030418 55 181 1.7 2.6 0.00 0.00 0.00 81 1023.5
20260507025914 55 157 2.6 2.6 0.00 0.00 0.00 80 1023.3
20260507025412 55 148 1.7 4.3 0.00 0.00 0.00 81 1023.3
20260507024910 55 175 4.3 5.2 0.00 0.00 0.00 81 1023.3
20260507024407 56 163 1.7 4.3 0.00 0.00 0.00 80 1023.5
20260507023902 56 201 2.6 2.6 0.00 0.00 0.00 80 1023.3
20260507023359 56 161 2.6 2.6 0.00 0.00 0.00 80 1023.0
20260507022857 56 136 1.7 2.6 0.00 0.00 0.00 80 1023.1
20260507022353 56 173 1.7 6.1 0.00 0.00 0.00 79 1023.0
20260507021849 56 153 0.9 4.3 0.00 0.00 0.00 79 1023.2
20260507021345 56 201 2.6 5.2 0.00 0.00 0.00 78 1023.1
20260507020843 56 160 3.5 5.2 0.00 0.00 0.00 78 1023.0
20260507020339 57 196 2.6 2.6 0.00 0.00 0.00 77 1023.1
20260507015836 57 165 0.9 2.6 0.00 0.00 0.00 78 1023.4
20260507015334 57 191 2.6 4.3 0.00 0.00 0.00 77 1023.1
20260507014831 57 168 2.6 4.3 0.00 0.00 0.00 77 1023.1
20260507014327 57 189 2.6 5.2 0.00 0.00 0.00 77 1023.1
20260507013824 57 264 2.6 6.1 0.00 0.00 0.00 77 1023.1
20260507013321 56 201 2.6 6.1 0.00 0.00 0.00 79 1023.1
20260507012819 56 136 1.7 1.7 0.00 0.00 0.00 79 1023.2
20260507012314 56 158 3.5 4.3 0.00 0.00 0.00 79 1023.2
20260507011811 56 192 3.5 5.2 0.00 0.00 0.00 78 1023.2
20260507011308 57 148 2.6 6.1 0.00 0.00 0.00 78 1023.5